Content
SEND FEEDBACK

Daily
Averages
Monthly
Summary
United States of America

TEHACHAPI, CALIFORNIA


Home > North America > United States > California
Elevation: 4002 feet     Latitude: 35 06N     Longitude: 118 25W

WEATHER
 
SELECT A DAY
Number of Records: 107,557;   Date Range: 12/9/09 - 8/29/14
 
SHARE

PRINT THIS DATA

[ ← Previous Day ]
WEATHER ALMANAC - JANUARY 23, 2013
[ Next Day → ]
[ °C ]   °F
Weather ElementAverageHighLow
Temperature47.5 °F57.2 °F (2:55 pm) (11:55 am)
Dewpoint12.5 °F32 °F (11:55 pm) (7:00 pm)
Humidity22.9 %54 % (11:55 pm)16 % (12:55 am)
Barometer28.23 in30.19 in (9:55 am) (7:00 pm)
Wind Speed10.3 mph21.9 mph (10:35 am)
Wind Gust27.6 mph (10:15 am)
Weather ElementAverage
Visibility9.9 mi
Wind DirectionESE (112.1 °)

Weather ElementTotal
Precipitation---
Heating Degree Days36.4 (Base 65)
Averaged from 63 records on January 23, 2013
WEATHER CONDITIONS BREAKOUT
WIND DIRECTION BREAKOUT
WEATHER BY HOUR - JANUARY 23, 2013
[ °C ]   °F
Local TimeTemperatureDewpointHumidityBarometerVisibilityWind DirectionWind SpeedGust SpeedPrecipitationEventsConditions
12:55 AM51.8 °F6.8 °F16 %30.16 in10.0 miESE (110°)12.7 mphClear
1:15 AM51.8 °F6.8 °F16 %30.16 in10.0 miESE (110°)11.5 mphClear
1:55 AM50.0 °F8.6 °F19 %30.16 in10.0 miESE (110°)10.4 mphClear
2:15 AM50.0 °F8.6 °F19 %30.17 in10.0 miEast (100°)11.5 mphClear
2:35 AM50.0 °F8.6 °F19 %30.16 in10.0 miEast (90°)9.2 mphClear
2:55 AM50.0 °F8.6 °F19 %30.16 in10.0 miESE (110°)12.7 mph19.6 mphClear
3:15 AM50.0 °F8.6 °F19 %30.15 in10.0 miESE (110°)12.7 mph17.3 mphClear
3:35 AM50.0 °F8.6 °F19 %30.15 in10.0 miESE (110°)10.4 mphClear
3:55 AM50.0 °F8.6 °F19 %30.14 in10.0 miSE (130°)13.8 mph19.6 mphClear
4:15 AM50.0 °F8.6 °F19 %30.14 in10.0 miEast (100°)9.2 mphClear
4:35 AM50.0 °F8.6 °F19 %30.14 in10.0 miESE (110°)5.8 mphClear
4:55 AM50.0 °F8.6 °F19 %30.15 in10.0 miENE (60°)4.6 mphClear
5:15 AM48.2 °F8.6 °F20 %30.15 in10.0 miEast (100°)6.9 mphClear
5:55 AM48.2 °F8.6 °F20 %30.15 in10.0 miEast (80°)5.8 mphClear
6:15 AM48.2 °F8.6 °F20 %30.16 in10.0 miEast (80°)5.8 mphClear
6:35 AM48.2 °F8.6 °F20 %30.15 in10.0 miEast (100°)6.9 mphPartly Cloudy
6:55 AM50.0 °F8.6 °F19 %30.15 in10.0 miESE (120°)10.4 mphPartly Cloudy
7:35 AM50.0 °F8.6 °F19 %30.16 in10.0 miSE (140°)13.8 mphScattered Clouds
7:55 AM50.0 °F8.6 °F19 %30.17 in10.0 miSSE (160°)13.8 mphPartly Cloudy
8:15 AM50.0 °F8.6 °F19 %30.17 in10.0 miSSE (150°)12.7 mphClear
8:35 AM50.0 °F8.6 °F19 %30.17 in10.0 miSSE (150°)8.1 mphClear
8:55 AM50.0 °F8.6 °F19 %30.17 in10.0 miSE (140°)9.2 mphPartly Cloudy
9:15 AM51.8 °F8.6 °F18 %30.18 in10.0 miSSE (150°)13.8 mphClear
9:55 AM53.6 °F10.4 °F18 %30.19 in10.0 miSE (130°)16.1 mph19.6 mphClear
10:15 AM53.6 °F8.6 °F16 %30.19 in10.0 miSSE (150°)19.6 mph27.6 mphClear
10:35 AM53.6 °F8.6 °F16 %30.19 in10.0 miSSE (150°)21.9 mph25.3 mphClear
10:55 AM53.6 °F8.6 °F16 %30.18 in10.0 miSSE (160°)18.4 mph23.0 mphClear
11:15 AM55.4 °F10.4 °F17 %30.18 in10.0 miSSE (150°)16.1 mphClear
11:55 AM0.0 °F0.0 °FNorth
12:15 PM0.0 °F0.0 °FNorth
12:35 PM0.0 °F0.0 °FNorth
12:55 PM0.0 °F0.0 °FNorth
1:15 PM55.4 °F15.8 °F21 %30.15 in10.0 miSE (140°)10.4 mph
1:55 PM0.0 °F0.0 °F30.13 inSE (140°)10.4 mph
2:15 PM55.4 °F14.0 °F20 %30.13 in10.0 miESE (120°)8.1 mphClear
2:35 PM55.4 °F14.0 °F20 %30.13 in10.0 miESE (120°)8.1 mphMostly Cloudy
2:55 PM57.2 °F14.0 °F18 %30.13 in10.0 miEast (100°)9.2 mphMostly Cloudy
3:15 PM57.2 °F15.8 °F20 %30.13 in10.0 miESE (120°)6.9 mphMostly Cloudy
3:55 PM57.2 °F17.6 °F21 %30.12 in10.0 miESE (110°)8.1 mphScattered Clouds
4:15 PM55.4 °F15.8 °F21 %30.11 in10.0 miEast (90°)8.1 mphClear
4:35 PM57.2 °F21.2 °F25 %30.10 in9.0 miESE (110°)9.2 mphClear
4:55 PM53.6 °F17.6 °F24 %30.11 in10.0 miSE (130°)8.1 mphClear
5:15 PM51.8 °F14.0 °F22 %30.12 in10.0 miSE (130°)10.4 mphClear
5:35 PM50.0 °F14.0 °F24 %30.13 in10.0 miEast (100°)8.1 mphScattered Clouds
5:55 PM50.0 °F12.2 °F22 %30.13 in10.0 miEast (80°)5.8 mphOvercast
6:15 PM50.0 °F14.0 °F24 %30.14 in10.0 miSE (140°)4.6 mphOvercast
6:35 PM50.0 °F12.2 °F22 %30.15 in10.0 miEast (100°)4.6 mphOvercast
6:55 PM50.0 °F12.2 °F22 %30.14 in10.0 miEast (100°)5.8 mphOvercast
7:15 PM50.0 °F14.0 °F24 %30.13 in10.0 miESE (120°)5.8 mphOvercast
7:35 PM50.0 °F15.8 °F26 %30.13 in10.0 miSouth (170°)5.8 mphMostly Cloudy
7:55 PM50.0 °F17.6 °F28 %30.13 in10.0 miESE (110°)8.1 mphOvercast
8:15 PM51.8 °F17.6 °F26 %30.12 in10.0 miSE (140°)10.4 mphOvercast
8:35 PM51.8 °F19.4 °F28 %30.13 in10.0 miESE (110°)6.9 mphOvercast
8:55 PM53.6 °F17.6 °F24 %30.14 in10.0 miSE (140°)6.9 mphOvercast
9:15 PM53.6 °F17.6 °F24 %30.14 in10.0 miEast (90°)9.2 mphOvercast
9:35 PM53.6 °F17.6 °F24 %30.15 in10.0 miESE (120°)9.2 mph20.7 mphOvercast
9:55 PM51.8 °F17.6 °F26 %30.15 in10.0 miSE (130°)10.4 mph21.9 mphOvercast
10:15 PM53.6 °F24.8 °F33 %30.15 in10.0 miESE (110°)12.7 mphOvercast
10:35 PM53.6 °F23.0 °F30 %30.14 in10.0 miESE (110°)13.8 mph21.9 mphOvercast
10:55 PM51.8 °F28.4 °F41 %30.14 in10.0 miESE (110°)13.8 mphOvercast
11:15 PM50.0 °F28.4 °F43 %30.14 in10.0 miSE (140°)12.7 mphOvercast
11:35 PM46.4 °F30.2 °F53 %30.13 in8.0 miSE (130°)12.7 mphRainLight Rain
11:55 PM48.2 °F32.0 °F54 %30.12 in9.0 miSE (140°)18.4 mph21.9 mphOvercast
Hourly data recorded from KTSP, located miles away from Tehachapi, California







STORIES FROM OUR PARTNERS